Weather in Veselovka

Russia / Komi Republic     61°28′16″N   51°35′05″E
temp.,
°C
wind,
m/s
gust,
m/s
humid.,
%
clouds,
%
prec.,
mm/h
press.,
hPa
HPBL,
m
5 august, thu
thu500:00+16nw31075100 0.0 1011311
03:00+15nw398053 0.0 1011298
06:00+15nw4869100 0.0 1012404
09:00+16nw4757100 0.0 1013631
12:00+20nnw453855 0.0 10141769
15:00+20nw453455 0.0 10141843
18:00+19nw37455 0.0 1015508
21:00+12nw39705 0.0 1016208
6 august, fri
fri600:00+9nw28825 0.0 1018187
03:00+7nw26901 0.0 1018140
06:00+11nw36750 0.0 1018363
09:00+15nw46535 0.0 10191275
12:00+18nw4543100 0.0 10181698
15:00+18nnw454277 0.0 10181863
18:00+15n365781 0.0 10191182
21:00+9nnw228314 0.0 102036
7 august, sat
sat700:00+7wnw22895 0.0 102026
03:00+7nw249387 0.0 102181
06:00+11nw257020 0.0 1021288
09:00+15nnw34480 0.0 10201382
12:00+18nw35394 0.0 10201760
15:00+19nnw45375 0.0 10201929
18:00+17nnw25495 0.0 1020255
21:00+10ne237883 0.0 102165
8 august, sun
sun800:00+8nnw1183100 0.0 102210
03:00+6nnw228525 0.0 102327
06:00+10nnw247090 0.0 1023207
09:00+15nnw3449100 0.0 10221059
12:00+18nnw3340100 0.0 10211394
15:00+19n2338100 0.0 10211487
18:00+17n115589 0.0 102014
21:00+11wsw117095 0.0 102010
9 august, mon
mon900:00+12w0067100 0.0 101910
03:00+12nw1268100 0.0 101934
06:00+10ne2395100 1.6 101864
09:00+11ne2596100 4.3 1017217
12:00+11e2697100 1.6 1017337
15:00+11e259692 1.9 1017304
18:00+11e1391100 0.0 1015206
21:00+9ne129633 0.0 101534